Location: Colonia Mina de C?rbuni
(46.1667°N, 22.7167°E)
Time: 05:55:02
(UTC+00:00)

Tiros 1 - Pass Details

Date: 29 April 2024
Orbit: 624 x 657 km, 48.4° (Epoch: 25 May)

Event Time Altitude Azimuth Distance (km) Brightness Sun altitude
Exits shadow 02:10:24 15° 224° (SW) 1,670 8.6 -11.2°
Drops below altitude 10° 02:13:00 10° 189° (S) 1,987 9.3 -10.8°
Sets 02:16:08 0° 167° (SSE) 2,887 10.3 -10.3°
